Погода в Миртл-Бич

США     33°42′00″N   78°55′19″W
темп.,
°C
ветер,
м/с
пор.,
м/с
влажн.,
%
обл.,
%
осадки,
мм/ч
давл.,
гПа
погр.,
м
31 июля, сб
сб3123:00+28юз39815 0.0 1014289
02:00+26зюз27860 0.0 1013225
05:00+26юз26835 0.0 1013165
08:00+27з23755 0.0 1014218
11:00+33зсз2351100 0.0 10141023
14:00+36юз1440100 0.0 10132306
17:00+32ю5762100 0.1 1012503
20:00+29ю237278 0.2 101298
1 августа, вс
вс123:00+28юз2477100 0.4 1013133
02:00+27ююз288172 1.9 1012306
05:00+26юз310825 0.1 1012315
08:00+28юз3107599 0.4 1012299
11:00+33зюз47548 0.0 10121059
14:00+37з58366 0.0 10112396
17:00+37зюз473511 0.0 10092330
20:00+31ююз235375 0.0 101088
2 августа, пн
пн223:00+29зюз51167100 0.1 1012524
02:00+25зсз51182100 0.4 1013517
05:00+24зсз3689100 0.2 1013312
08:00+25з128491 0.3 1014291
11:00+30ююз1162100 0.1 10151066
14:00+28ююв347696 4.9 1014418
17:00+26ю3586100 11.6 1013186
20:00+25ю369272 16.4 1013190
3 августа, вт
вт323:00+22ссз3498100 17.7 1014112
02:00+22с1397100 19.9 1013135
05:00+22з2496100 0.3 1013166
08:00+22зюз1295100 1.1 101486
11:00+22ссв0194100 1.6 1015150
14:00+27ююв138097 4.3 1014854
17:00+25ссв338791 5.3 1013541
20:00+22с4896100 7.1 1014325
4 августа, ср
ср423:00+21с3795100 0.6 1015321
02:00+20с2493100 0.6 1016273
05:00+19ссв2392100 0.0 1016177
08:00+20ссв3589100 0.0 1017247
11:00+24св2277100 0.0 1018585
14:00+26в2269100 0.1 1018950
17:00+27юв3469100 0.1 1017965
20:00+25ю3778100 0.4 1017332